,,PressureMeas_1m,,PRMeasQMR101_1,,RHStat155_1m_1,,SRMeasQMS101R_1m,,TAStat155_1m_1,,GenWind_1,,GenWind_1,
2018-12-12, 00:00:06,VALID,919.012,VALID,0.0,VALID,96.671,VALID,0.008,VALID,20.558,INVALID,360.0,VALID,0.0,
2018-12-12, 00:01:06,VALID,919.006,VALID,0.0,VALID,96.761,VALID,-0.007,VALID,20.561,INVALID,360.0,VALID,0.0,
2018-12-12, 00:02:06,VALID,919.013,VALID,0.0,VALID,96.789,VALID,-0.006,VALID,20.558,INVALID,360.0,VALID,0.0,
2018-12-12, 00:03:06,VALID,919.015,VALID,0.0,VALID,96.765,VALID,-0.001,VALID,20.548,INVALID,360.0,VALID,0.0,
2018-12-12, 00:04:06,VALID,919.022,VALID,0.0,VALID,96.838,VALID,0.007,VALID,20.552,INVALID,360.0,VALID,0.0,
2018-12-12, 00:05:06,VALID,919.023,VALID,0.0,VALID,96.887,VALID,-0.001,VALID,20.561,INVALID,360.0,VALID,0.0,
2018-12-12, 00:06:06,VALID,919.027,VALID,0.0,VALID,96.952,VALID,-0.003,VALID,20.564,INVALID,360.0,VALID,0.0,
2018-12-12, 00:07:06,VALID,919.042,VALID,0.0,VALID,96.932,VALID,-0.008,VALID,20.556,INVALID,360.0,VALID,0.0,
2018-12-12, 00:08:06,VALID,919.044,VALID,0.0,VALID,97.028,VALID,-0.0,VALID,20.548,INVALID,360.0,VALID,0.0,
2018-12-12, 00:09:06,VALID,919.056,VALID,0.0,VALID,97.098,VALID,0.008,VALID,20.545,INVALID,360.0,VALID,0.0,
2018-12-12, 00:10:06,VALID,919.064,VALID,0.0,VALID,97.288,VALID,0.002,VALID,20.564,INVALID,360.0,VALID,0.0,
2018-12-12, 00:11:06,VALID,919.068,VALID,0.0,VALID,97.473,VALID,0.011,VALID,20.574,INVALID,360.0,VALID,0.0,
2018-12-12, 00:12:06,VALID,919.065,VALID,0.0,VALID,97.657,VALID,0.006,VALID,20.595,INVALID,360.0,VALID,0.0,
2018-12-12, 00:13:06,VALID,919.051,VALID,0.0,VALID,97.706,VALID,0.008,VALID,20.584,INVALID,360.0,VALID,0.0,
2018-12-12, 00:14:06,VALID,919.036,VALID,0.0,VALID,97.765,VALID,-0.011,VALID,20.582,INVALID,360.0,VALID,0.0,
2018-12-12, 00:15:06,VALID,919.047,VALID,0.0,VALID,97.799,VALID,0.001,VALID,20.576,INVALID,360.0,VALID,0.0,
2018-12-12, 00:16:06,VALID,919.042,VALID,0.0,VALID,97.685,VALID,0.0,VALID,20.541,INVALID,360.0,VALID,0.0,
2018-12-12, 00:17:06,VALID,919.032,VALID,0.0,VALID,97.774,VALID,0.015,VALID,20.566,INVALID,360.0,VALID,0.0,
2018-12-12, 00:18:06,VALID,919.02,VALID,0.0,VALID,97.708,VALID,0.007,VALID,20.526,INVALID,360.0,VALID,0.0,
2018-12-12, 00:19:06,VALID,919.002,VALID,0.0,VALID,97.603,VALID,0.002,VALID,20.51,INVALID,360.0,VALID,0.0,
2018-12-12, 00:20:06,VALID,918.995,VALID,0.0,VALID,97.499,VALID,0.02,VALID,20.51,INVALID,360.0,VALID,0.0,
2018-12-12, 00:21:06,VALID,918.982,VALID,0.0,VALID,97.348,VALID,-0.002,VALID,20.509,INVALID,360.0,VALID,0.0,
2018-12-12, 00:22:06,VALID,918.962,VALID,0.0,VALID,97.159,VALID,-0.003,VALID,20.514,INVALID,360.0,VALID,0.0,
2018-12-12, 00:23:06,VALID,918.958,VALID,0.0,VALID,97.033,VALID,0.008,VALID,20.519,INVALID,360.0,VALID,0.0,
2018-12-12, 00:24:06,VALID,918.943,VALID,0.0,VALID,96.943,VALID,0.008,VALID,20.526,INVALID,360.0,VALID,0.0,
2018-12-12, 00:25:06,VALID,918.912,VALID,0.0,VALID,96.859,VALID,0.0,VALID,20.515,INVALID,360.0,VALID,0.0,
2018-12-12, 00:26:06,VALID,918.91,VALID,0.0,VALID,96.794,VALID,0.019,VALID,20.509,INVALID,360.0,VALID,0.0,
2018-12-12, 00:27:06,VALID,918.908,VALID,0.0,VALID,96.824,VALID,0.013,VALID,20.515,INVALID,360.0,VALID,0.0,
2018-12-12, 00:28:06,VALID,918.901,VALID,0.0,VALID,96.855,VALID,0.028,VALID,20.515,INVALID,360.0,VALID,0.0,
2018-12-12, 00:29:06,VALID,918.885,VALID,0.0,VALID,96.746,VALID,0.016,VALID,20.507,INVALID,360.0,VALID,0.0,
2018-12-12, 00:30:06,VALID,918.878,VALID,0.0,VALID,96.664,VALID,0.012,VALID,20.501,INVALID,360.0,VALID,0.0,
2018-12-12, 00:31:06,VALID,918.869,VALID,0.0,VALID,96.779,VALID,0.016,VALID,20.518,INVALID,360.0,VALID,0.0,
2018-12-12, 00:32:06,VALID,918.852,VALID,0.0,VALID,96.921,VALID,0.011,VALID,20.535,INVALID,360.0,VALID,0.0,
2018-12-12, 00:33:06,VALID,918.8,VALID,0.0,VALID,96.724,VALID,0.012,VALID,20.495,INVALID,360.0,VALID,0.0,
2018-12-12, 00:34:06,VALID,918.794,VALID,0.0,VALID,96.617,VALID,0.002,VALID,20.487,INVALID,360.0,VALID,0.0,
2018-12-12, 00:35:06,VALID,918.771,VALID,0.0,VALID,96.659,VALID,0.017,VALID,20.492,VALID,344.0,VALID,0.0,
2018-12-12, 00:36:06,VALID,918.761,VALID,0.0,VALID,96.718,VALID,0.012,VALID,20.497,INVALID,360.0,VALID,0.0,
2018-12-12, 00:37:06,VALID,918.737,VALID,0.0,VALID,96.844,VALID,0.012,VALID,20.51,INVALID,360.0,VALID,0.0,
2018-12-12, 00:38:06,VALID,918.723,VALID,0.0,VALID,96.902,VALID,0.027,VALID,20.511,INVALID,360.0,VALID,0.0,
2018-12-12, 00:39:06,VALID,918.727,VALID,0.0,VALID,96.926,VALID,0.033,VALID,20.515,INVALID,360.0,VALID,0.0,
2018-12-12, 00:40:06,VALID,918.707,VALID,0.0,VALID,96.916,VALID,0.016,VALID,20.501,INVALID,360.0,VALID,0.0,
2018-12-12, 00:41:06,VALID,918.717,VALID,0.0,VALID,96.981,VALID,-0.023,VALID,20.489,INVALID,360.0,VALID,0.0,
2018-12-12, 00:42:06,VALID,918.727,VALID,0.0,VALID,97.06,VALID,-0.019,VALID,20.482,INVALID,360.0,VALID,0.0,
2018-12-12, 00:43:06,VALID,918.717,VALID,0.0,VALID,97.207,VALID,-0.023,VALID,20.502,INVALID,360.0,VALID,0.0,
2018-12-12, 00:44:06,VALID,918.722,VALID,0.0,VALID,97.292,VALID,-0.023,VALID,20.494,INVALID,360.0,VALID,0.0,
2018-12-12, 00:45:06,VALID,918.709,VALID,0.0,VALID,97.327,VALID,-0.022,VALID,20.472,INVALID,360.0,VALID,0.0,
2018-12-12, 00:46:06,VALID,918.711,VALID,0.0,VALID,97.389,VALID,-0.027,VALID,20.457,INVALID,360.0,VALID,0.0,
2018-12-12, 00:47:06,VALID,918.703,VALID,0.0,VALID,97.478,VALID,-0.02,VALID,20.453,INVALID,360.0,VALID,0.0,
2018-12-12, 00:48:06,VALID,918.692,VALID,0.0,VALID,97.554,VALID,-0.022,VALID,20.449,INVALID,360.0,VALID,0.0,
2018-12-12, 00:49:06,VALID,918.712,VALID,0.0,VALID,97.565,VALID,-0.023,VALID,20.434,INVALID,360.0,VALID,0.0,
2018-12-12, 00:50:06,VALID,918.683,VALID,0.0,VALID,97.627,VALID,-0.023,VALID,20.426,INVALID,360.0,VALID,0.0,
2018-12-12, 00:51:06,VALID,918.686,VALID,0.0,VALID,97.645,VALID,-0.005,VALID,20.427,INVALID,360.0,VALID,0.0,
2018-12-12, 00:52:06,VALID,918.69,VALID,0.0,VALID,97.781,VALID,-0.01,VALID,20.453,INVALID,360.0,VALID,0.0,
2018-12-12, 00:53:06,VALID,918.676,VALID,0.0,VALID,97.834,VALID,-0.027,VALID,20.44,INVALID,360.0,VALID,0.0,
2018-12-12, 00:54:06,VALID,918.689,VALID,0.0,VALID,97.946,VALID,-0.035,VALID,20.455,INVALID,360.0,VALID,0.0,
2018-12-12, 00:55:06,VALID,918.679,VALID,0.0,VALID,98.068,VALID,-0.01,VALID,20.484,INVALID,360.0,VALID,0.0,
2018-12-12, 00:56:06,VALID,918.677,VALID,0.0,VALID,98.122,VALID,-0.03,VALID,20.5,INVALID,360.0,VALID,0.0,
2018-12-12, 00:57:06,VALID,918.662,VALID,0.0,VALID,97.961,VALID,-0.03,VALID,20.452,INVALID,360.0,VALID,0.0,
2018-12-12, 00:58:06,VALID,918.674,VALID,0.0,VALID,97.938,VALID,-0.004,VALID,20.44,INVALID,360.0,VALID,0.0,
2018-12-12, 00:59:06,VALID,918.658,VALID,0.0,VALID,97.884,VALID,-0.013,VALID,20.434,INVALID,360.0,VALID,0.0,
2018-12-12, 01:00:06,VALID,918.676,VALID,0.0,VALID,97.918,VALID,-0.01,VALID,20.433,INVALID,360.0,VALID,0.0,
2018-12-12, 01:01:06,VALID,918.675,VALID,0.0,VALID,97.89,VALID,-0.009,VALID,20.44,INVALID,360.0,VALID,0.0,
2018-12-12, 01:02:06,VALID,918.655,VALID,0.0,VALID,97.89,VALID,-0.008,VALID,20.445,INVALID,360.0,VALID,0.0,
2018-12-12, 01:03:06,VALID,918.649,VALID,0.0,VALID,97.983,VALID,-0.014,VALID,20.455,INVALID,360.0,VALID,0.0,
2018-12-12, 01:04:06,VALID,918.665,VALID,0.0,VALID,98.084,VALID,-0.014,VALID,20.447,INVALID,360.0,VALID,0.0,
2018-12-12, 01:05:06,VALID,918.645,VALID,0.0,VALID,98.113,VALID,-0.032,VALID,20.413,INVALID,360.0,VALID,0.0,
2018-12-12, 01:06:06,VALID,918.628,VALID,0.0,VALID,97.944,VALID,-0.026,VALID,20.364,INVALID,360.0,VALID,0.0,
2018-12-12, 01:07:06,VALID,918.629,VALID,0.0,VALID,97.728,VALID,-0.024,VALID,20.371,INVALID,360.0,VALID,0.0,
2018-12-12, 01:08:06,VALID,918.601,VALID,0.0,VALID,97.637,VALID,-0.026,VALID,20.391,INVALID,360.0,VALID,0.0,
2018-12-12, 01:09:06,VALID,918.604,VALID,0.0,VALID,97.669,VALID,-0.027,VALID,20.413,INVALID,360.0,VALID,0.0,
2018-12-12, 01:10:06,VALID,918.603,VALID,0.0,VALID,97.814,VALID,-0.005,VALID,20.428,INVALID,360.0,VALID,0.0,
2018-12-12, 01:11:06,VALID,918.584,VALID,0.0,VALID,97.873,VALID,-0.012,VALID,20.417,INVALID,360.0,VALID,0.0,
2018-12-12, 01:12:06,VALID,918.576,VALID,0.0,VALID,97.627,VALID,-0.022,VALID,20.34,INVALID,360.0,VALID,0.0,
2018-12-12, 01:13:06,VALID,918.551,VALID,0.0,VALID,97.081,VALID,-0.021,VALID,20.292,INVALID,360.0,VALID,0.0,
2018-12-12, 01:14:06,VALID,918.556,VALID,0.0,VALID,96.826,VALID,-0.01,VALID,20.342,INVALID,360.0,VALID,0.0,
2018-12-12, 01:15:06,VALID,918.539,VALID,0.0,VALID,96.698,VALID,-0.007,VALID,20.353,INVALID,360.0,VALID,0.0,
2018-12-12, 01:16:06,VALID,918.521,VALID,0.0,VALID,96.609,VALID,-0.013,VALID,20.367,INVALID,360.0,VALID,0.0,
2018-12-12, 01:17:06,VALID,918.474,VALID,0.0,VALID,96.676,VALID,-0.001,VALID,20.367,INVALID,360.0,VALID,0.0,
2018-12-12, 01:18:06,VALID,918.474,VALID,0.0,VALID,96.446,VALID,-0.026,VALID,20.332,INVALID,360.0,VALID,0.0,
2018-12-12, 01:19:06,VALID,918.493,VALID,0.0,VALID,96.263,VALID,-0.017,VALID,20.351,INVALID,360.0,VALID,0.0,
2018-12-12, 01:20:06,VALID,918.492,VALID,0.0,VALID,96.147,VALID,-0.027,VALID,20.36,INVALID,360.0,VALID,0.0,
2018-12-12, 01:21:06,VALID,918.487,VALID,0.0,VALID,96.214,VALID,-0.014,VALID,20.381,INVALID,360.0,VALID,0.0,
2018-12-12, 01:22:06,VALID,918.474,VALID,0.0,VALID,96.308,VALID,-0.023,VALID,20.372,INVALID,360.0,VALID,0.0,
2018-12-12, 01:23:06,VALID,918.468,VALID,0.0,VALID,96.221,VALID,-0.006,VALID,20.346,INVALID,360.0,VALID,0.0,
2018-12-12, 01:24:06,VALID,918.46,VALID,0.0,VALID,96.305,VALID,0.0,VALID,20.345,INVALID,360.0,VALID,0.0,
2018-12-12, 01:25:06,VALID,918.445,VALID,0.0,VALID,96.189,VALID,0.004,VALID,20.325,INVALID,360.0,VALID,0.0,
2018-12-12, 01:26:06,VALID,918.448,VALID,0.0,VALID,96.178,VALID,-0.015,VALID,20.335,INVALID,360.0,VALID,0.0,
2018-12-12, 01:27:06,VALID,918.405,VALID,0.0,VALID,96.309,VALID,0.005,VALID,20.344,INVALID,360.0,VALID,0.0,
2018-12-12, 01:28:06,VALID,918.419,VALID,0.0,VALID,96.479,VALID,0.017,VALID,20.348,INVALID,360.0,VALID,0.0,
2018-12-12, 01:29:06,VALID,918.406,VALID,0.0,VALID,96.635,VALID,0.008,VALID,20.351,INVALID,360.0,VALID,0.0,
2018-12-12, 01:30:06,VALID,918.378,VALID,0.0,VALID,96.484,VALID,0.011,VALID,20.315,INVALID,360.0,VALID,0.0,
2018-12-12, 01:31:06,VALID,918.366,VALID,0.0,VALID,96.538,VALID,0.02,VALID,20.317,INVALID,360.0,VALID,0.0,
2018-12-12, 01:32:06,VALID,918.37,VALID,0.0,VALID,96.693,VALID,0.0,VALID,20.326,INVALID,360.0,VALID,0.0,
2018-12-12, 01:33:06,VALID,918.339,VALID,0.0,VALID,96.836,VALID,-0.002,VALID,20.344,INVALID,360.0,VALID,0.0,
2018-12-12, 01:34:06,VALID,918.312,VALID,0.0,VALID,96.73,VALID,0.013,VALID,20.323,INVALID,360.0,VALID,0.0,
2018-12-12, 01:35:06,VALID,918.304,VALID,0.0,VALID,96.81,VALID,0.002,VALID,20.339,INVALID,360.0,VALID,0.0,
2018-12-12, 01:36:06,VALID,918.294,VALID,0.0,VALID,96.981,VALID,0.003,VALID,20.344,INVALID,360.0,VALID,0.0,
2018-12-12, 01:37:06,VALID,918.259,VALID,0.0,VALID,96.853,VALID,-0.001,VALID,20.33,INVALID,360.0,VALID,0.0,
2018-12-12, 01:38:06,VALID,918.227,VALID,0.0,VALID,96.572,VALID,0.004,VALID,20.309,INVALID,360.0,VALID,0.0,
2018-12-12, 01:39:06,VALID,918.211,VALID,0.0,VALID,96.543,VALID,0.01,VALID,20.354,INVALID,360.0,VALID,0.0,
2018-12-12, 01:40:06,VALID,918.201,VALID,0.0,VALID,96.626,VALID,0.011,VALID,20.371,INVALID,360.0,VALID,0.0,
2018-12-12, 01:41:06,VALID,918.184,VALID,0.0,VALID,96.567,VALID,-0.014,VALID,20.344,INVALID,360.0,VALID,0.0,
2018-12-12, 01:42:06,VALID,918.171,VALID,0.0,VALID,96.533,VALID,-0.011,VALID,20.341,INVALID,360.0,VALID,0.0,
2018-12-12, 01:43:06,VALID,918.172,VALID,0.0,VALID,96.649,VALID,-0.017,VALID,20.344,INVALID,360.0,VALID,0.0,
2018-12-12, 01:44:06,VALID,918.163,VALID,0.0,VALID,96.771,VALID,-0.021,VALID,20.327,INVALID,360.0,VALID,0.0,
2018-12-12, 01:45:06,VALID,918.133,VALID,0.0,VALID,96.537,VALID,-0.013,VALID,20.298,INVALID,360.0,VALID,0.0,
2018-12-12, 01:46:06,VALID,918.142,VALID,0.0,VALID,96.598,VALID,-0.015,VALID,20.321,INVALID,360.0,VALID,0.0,
2018-12-12, 01:47:06,VALID,918.116,VALID,0.0,VALID,96.675,VALID,-0.02,VALID,20.328,INVALID,360.0,VALID,0.0,
2018-12-12, 01:48:06,VALID,918.103,VALID,0.0,VALID,96.519,VALID,-0.011,VALID,20.297,INVALID,360.0,VALID,0.0,
2018-12-12, 01:49:06,VALID,918.121,VALID,0.0,VALID,96.634,VALID,-0.009,VALID,20.311,INVALID,360.0,VALID,0.0,
2018-12-12, 01:50:06,VALID,918.111,VALID,0.0,VALID,96.809,VALID,-0.007,VALID,20.314,INVALID,360.0,VALID,0.0,
2018-12-12, 01:51:06,VALID,918.079,VALID,0.0,VALID,96.76,VALID,-0.028,VALID,20.298,INVALID,360.0,VALID,0.0,
2018-12-12, 01:52:06,VALID,918.055,VALID,0.0,VALID,96.879,VALID,-0.029,VALID,20.307,INVALID,360.0,VALID,0.0,
2018-12-12, 01:53:06,VALID,918.053,VALID,0.0,VALID,96.919,VALID,-0.01,VALID,20.306,INVALID,360.0,VALID,0.0,
2018-12-12, 01:54:06,VALID,918.058,VALID,0.0,VALID,96.93,VALID,-0.019,VALID,20.289,INVALID,360.0,VALID,0.0,
2018-12-12, 01:55:06,VALID,918.05,VALID,0.0,VALID,96.958,VALID,-0.018,VALID,20.282,INVALID,360.0,VALID,0.0,
2018-12-12, 01:56:06,VALID,918.048,VALID,0.0,VALID,96.902,VALID,0.003,VALID,20.271,INVALID,360.0,VALID,0.0,
2018-12-12, 01:57:06,VALID,918.04,VALID,0.0,VALID,96.953,VALID,-0.009,VALID,20.287,INVALID,360.0,VALID,0.0,
2018-12-12, 01:58:06,VALID,918.036,VALID,0.0,VALID,97.017,VALID,-0.013,VALID,20.28,INVALID,360.0,VALID,0.0,
2018-12-12, 01:59:06,VALID,918.045,VALID,0.0,VALID,97.103,VALID,-0.011,VALID,20.269,INVALID,360.0,VALID,0.0,
2018-12-12, 02:00:06,VALID,918.042,VALID,0.0,VALID,97.246,VALID,-0.015,VALID,20.261,INVALID,360.0,VALID,0.0,
2018-12-12, 02:01:06,VALID,918.049,VALID,0.0,VALID,97.232,VALID,-0.013,VALID,20.236,INVALID,360.0,VALID,0.0,
2018-12-12, 02:02:06,VALID,918.052,VALID,0.0,VALID,97.184,VALID,-0.012,VALID,20.235,INVALID,360.0,VALID,0.0,
2018-12-12, 02:03:06,VALID,918.027,VALID,0.0,VALID,96.977,VALID,-0.004,VALID,20.225,INVALID,360.0,VALID,0.0,
2018-12-12, 02:04:06,VALID,918.029,VALID,0.0,VALID,96.932,VALID,-0.014,VALID,20.248,INVALID,360.0,VALID,0.0,
2018-12-12, 02:05:06,VALID,918.014,VALID,0.0,VALID,96.984,VALID,-0.013,VALID,20.264,INVALID,360.0,VALID,0.0,
2018-12-12, 02:06:06,VALID,918.011,VALID,0.0,VALID,96.884,VALID,-0.026,VALID,20.259,INVALID,360.0,VALID,0.0,
2018-12-12, 02:07:06,VALID,918.021,VALID,0.0,VALID,96.863,VALID,-0.011,VALID,20.269,INVALID,360.0,VALID,0.0,
2018-12-12, 02:08:06,VALID,917.99,VALID,0.0,VALID,96.744,VALID,-0.009,VALID,20.259,INVALID,360.0,VALID,0.0,
2018-12-12, 02:09:06,VALID,917.977,VALID,0.0,VALID,96.67,VALID,-0.004,VALID,20.261,INVALID,360.0,VALID,0.0,
2018-12-12, 02:10:06,VALID,917.961,VALID,0.0,VALID,96.729,VALID,0.002,VALID,20.286,INVALID,360.0,VALID,0.0,
2018-12-12, 02:11:06,VALID,917.965,VALID,0.0,VALID,96.728,VALID,-0.0,VALID,20.297,INVALID,360.0,VALID,0.0,
2018-12-12, 02:12:06,VALID,917.945,VALID,0.0,VALID,96.613,VALID,-0.009,VALID,20.273,INVALID,360.0,VALID,0.0,
2018-12-12, 02:13:06,VALID,917.931,VALID,0.0,VALID,96.658,VALID,0.002,VALID,20.266,INVALID,360.0,VALID,0.0,
2018-12-12, 02:14:06,VALID,917.946,VALID,0.0,VALID,96.758,VALID,0.012,VALID,20.282,INVALID,360.0,VALID,0.0,
2018-12-12, 02:15:06,VALID,917.936,VALID,0.0,VALID,96.773,VALID,0.022,VALID,20.282,INVALID,360.0,VALID,0.0,
2018-12-12, 02:16:06,VALID,917.914,VALID,0.0,VALID,96.765,VALID,0.01,VALID,20.27,INVALID,360.0,VALID,0.0,
2018-12-12, 02:17:06,VALID,917.899,VALID,0.0,VALID,96.787,VALID,-0.011,VALID,20.256,INVALID,360.0,VALID,0.0,
2018-12-12, 02:18:06,VALID,917.876,VALID,0.0,VALID,96.853,VALID,0.0,VALID,20.252,INVALID,360.0,VALID,0.0,
2018-12-12, 02:19:06,VALID,917.849,VALID,0.0,VALID,96.919,VALID,0.01,VALID,20.243,INVALID,360.0,VALID,0.0,
2018-12-12, 02:20:06,VALID,917.857,VALID,0.0,VALID,97.037,VALID,0.004,VALID,20.246,INVALID,360.0,VALID,0.0,
2018-12-12, 02:21:06,VALID,917.854,VALID,0.0,VALID,97.091,VALID,0.007,VALID,20.246,INVALID,360.0,VALID,0.0,
2018-12-12, 02:22:06,VALID,917.858,VALID,0.0,VALID,97.062,VALID,0.0,VALID,20.242,INVALID,360.0,VALID,0.0,
2018-12-12, 02:23:06,VALID,917.838,VALID,0.0,VALID,96.977,VALID,0.008,VALID,20.231,INVALID,360.0,VALID,0.0,
2018-12-12, 02:24:06,VALID,917.875,VALID,0.0,VALID,96.983,VALID,0.03,VALID,20.246,INVALID,360.0,VALID,0.0,
2018-12-12, 02:25:06,VALID,917.856,VALID,0.0,VALID,96.971,VALID,0.012,VALID,20.264,INVALID,360.0,VALID,0.0,
2018-12-12, 02:26:06,VALID,917.837,VALID,0.0,VALID,96.974,VALID,0.003,VALID,20.257,INVALID,360.0,VALID,0.0,
2018-12-12, 02:27:06,VALID,917.842,VALID,0.0,VALID,96.943,VALID,-0.01,VALID,20.248,INVALID,360.0,VALID,0.0,
2018-12-12, 02:28:06,VALID,917.836,VALID,0.0,VALID,96.945,VALID,-0.009,VALID,20.255,INVALID,360.0,VALID,0.0,
2018-12-12, 02:29:06,VALID,917.825,VALID,0.0,VALID,96.991,VALID,-0.007,VALID,20.258,INVALID,360.0,VALID,0.0,
2018-12-12, 02:30:06,VALID,917.802,VALID,0.0,VALID,97.065,VALID,-0.008,VALID,20.262,INVALID,360.0,VALID,0.0,
2018-12-12, 02:31:06,VALID,917.809,VALID,0.0,VALID,97.034,VALID,-0.006,VALID,20.26,INVALID,360.0,VALID,0.0,
2018-12-12, 02:32:06,VALID,917.792,VALID,0.0,VALID,96.99,VALID,-0.01,VALID,20.268,INVALID,360.0,VALID,0.0,
2018-12-12, 02:33:06,VALID,917.793,VALID,0.0,VALID,97.038,VALID,-0.002,VALID,20.284,INVALID,360.0,VALID,0.0,
2018-12-12, 02:34:06,VALID,917.782,VALID,0.0,VALID,96.99,VALID,-0.011,VALID,20.277,INVALID,360.0,VALID,0.0,
2018-12-12, 02:35:06,VALID,917.774,VALID,0.0,VALID,96.826,VALID,-0.0,VALID,20.254,INVALID,360.0,VALID,0.0,
2018-12-12, 02:36:06,VALID,917.776,VALID,0.0,VALID,96.766,VALID,-0.019,VALID,20.233,INVALID,360.0,VALID,0.0,
2018-12-12, 02:37:06,VALID,917.765,VALID,0.0,VALID,96.799,VALID,-0.001,VALID,20.245,INVALID,360.0,VALID,0.0,
2018-12-12, 02:38:06,VALID,917.752,VALID,0.0,VALID,96.768,VALID,-0.025,VALID,20.246,INVALID,360.0,VALID,0.0,
2018-12-12, 02:39:06,VALID,917.732,VALID,0.0,VALID,96.684,VALID,-0.019,VALID,20.253,INVALID,360.0,VALID,0.0,
2018-12-12, 02:40:06,VALID,917.723,VALID,0.0,VALID,96.744,VALID,-0.016,VALID,20.267,INVALID,360.0,VALID,0.0,
2018-12-12, 02:41:06,VALID,917.733,VALID,0.0,VALID,96.761,VALID,0.019,VALID,20.265,INVALID,360.0,VALID,0.0,
2018-12-12, 02:42:06,VALID,917.728,VALID,0.0,VALID,96.649,VALID,0.021,VALID,20.262,INVALID,360.0,VALID,0.0,
2018-12-12, 02:43:06,VALID,917.74,VALID,0.0,VALID,96.642,VALID,0.029,VALID,20.281,INVALID,360.0,VALID,0.0,
2018-12-12, 02:44:06,VALID,917.735,VALID,0.0,VALID,96.404,VALID,0.03,VALID,20.269,INVALID,360.0,VALID,0.0,
2018-12-12, 02:45:06,VALID,917.74,VALID,0.0,VALID,96.512,VALID,0.017,VALID,20.285,INVALID,360.0,VALID,0.0,
2018-12-12, 02:46:06,VALID,917.743,VALID,0.0,VALID,96.485,VALID,0.029,VALID,20.288,INVALID,360.0,VALID,0.0,
2018-12-12, 02:47:06,VALID,917.75,VALID,0.0,VALID,96.562,VALID,0.05,VALID,20.297,INVALID,360.0,VALID,0.0,
2018-12-12, 02:48:06,VALID,917.746,VALID,0.0,VALID,96.565,VALID,0.031,VALID,20.317,INVALID,360.0,VALID,0.0,
2018-12-12, 02:49:06,VALID,917.732,VALID,0.0,VALID,96.431,VALID,0.038,VALID,20.33,INVALID,360.0,VALID,0.0,
2018-12-12, 02:50:06,VALID,917.737,VALID,0.0,VALID,96.286,VALID,0.045,VALID,20.332,INVALID,360.0,VALID,0.0,
2018-12-12, 02:51:06,VALID,917.723,VALID,0.0,VALID,96.138,VALID,0.027,VALID,20.318,INVALID,360.0,VALID,0.0,
2018-12-12, 02:52:06,VALID,917.734,VALID,0.0,VALID,96.109,VALID,0.039,VALID,20.308,INVALID,360.0,VALID,0.0,
2018-12-12, 02:53:06,VALID,917.731,VALID,0.0,VALID,96.064,VALID,0.041,VALID,20.298,INVALID,360.0,VALID,0.0,
2018-12-12, 02:54:06,VALID,917.709,VALID,0.0,VALID,96.025,VALID,0.056,VALID,20.298,INVALID,360.0,VALID,0.0,
2018-12-12, 02:55:06,VALID,917.705,VALID,0.0,VALID,96.045,VALID,0.019,VALID,20.297,INVALID,360.0,VALID,0.0,
2018-12-12, 02:56:06,VALID,917.692,VALID,0.0,VALID,96.105,VALID,0.002,VALID,20.308,INVALID,360.0,VALID,0.0,
2018-12-12, 02:57:06,VALID,917.698,VALID,0.0,VALID,96.191,VALID,0.007,VALID,20.314,INVALID,360.0,VALID,0.0,
2018-12-12, 02:58:06,VALID,917.68,VALID,0.0,VALID,96.175,VALID,0.013,VALID,20.301,INVALID,360.0,VALID,0.0,
2018-12-12, 02:59:06,VALID,917.667,VALID,0.0,VALID,96.204,VALID,0.0,VALID,20.293,INVALID,360.0,VALID,0.0,
2018-12-12, 03:00:06,VALID,917.661,VALID,0.0,VALID,96.38,VALID,0.005,VALID,20.296,INVALID,360.0,VALID,0.0,
2018-12-12, 03:01:06,VALID,917.648,VALID,0.0,VALID,96.43,VALID,-0.025,VALID,20.308,INVALID,360.0,VALID,0.0,
2018-12-12, 03:02:06,VALID,917.657,VALID,0.0,VALID,96.402,VALID,-0.002,VALID,20.308,INVALID,360.0,VALID,0.0,
2018-12-12, 03:03:06,VALID,917.653,VALID,0.0,VALID,96.274,VALID,-0.001,VALID,20.287,INVALID,360.0,VALID,0.0,
2018-12-12, 03:04:06,VALID,917.649,VALID,0.0,VALID,96.058,VALID,-0.007,VALID,20.268,INVALID,360.0,VALID,0.0,
2018-12-12, 03:05:06,VALID,917.647,VALID,0.0,VALID,96.012,VALID,0.003,VALID,20.283,INVALID,360.0,VALID,0.0,
2018-12-12, 03:06:06,VALID,917.633,VALID,0.0,VALID,96.131,VALID,-0.001,VALID,20.308,INVALID,360.0,VALID,0.0,
2018-12-12, 03:07:06,VALID,917.633,VALID,0.0,VALID,96.079,VALID,-0.017,VALID,20.318,INVALID,360.0,VALID,0.0,
2018-12-12, 03:08:06,VALID,917.628,VALID,0.0,VALID,95.978,VALID,-0.014,VALID,20.314,INVALID,360.0,VALID,0.0,
2018-12-12, 03:09:06,VALID,917.632,VALID,0.0,VALID,96.065,VALID,0.008,VALID,20.338,INVALID,360.0,VALID,0.0,
2018-12-12, 03:10:06,VALID,917.641,VALID,0.0,VALID,96.216,VALID,-0.013,VALID,20.361,INVALID,360.0,VALID,0.0,
2018-12-12, 03:11:06,VALID,917.652,VALID,0.0,VALID,96.222,VALID,0.003,VALID,20.341,INVALID,360.0,VALID,0.0,
2018-12-12, 03:12:06,VALID,917.667,VALID,0.0,VALID,96.416,VALID,0.007,VALID,20.347,INVALID,360.0,VALID,0.0,
2018-12-12, 03:13:06,VALID,917.703,VALID,0.0,VALID,96.467,VALID,0.001,VALID,20.327,INVALID,360.0,VALID,0.0,
2018-12-12, 03:14:06,VALID,917.681,VALID,0.0,VALID,96.474,VALID,0.014,VALID,20.297,INVALID,360.0,VALID,0.0,
2018-12-12, 03:15:06,VALID,917.704,VALID,0.0,VALID,96.405,VALID,0.008,VALID,20.281,INVALID,360.0,VALID,0.0,
2018-12-12, 03:16:06,VALID,917.71,VALID,0.0,VALID,96.436,VALID,-0.002,VALID,20.294,INVALID,360.0,VALID,0.0,
2018-12-12, 03:17:06,VALID,917.726,VALID,0.0,VALID,96.422,VALID,0.004,VALID,20.296,INVALID,360.0,VALID,0.0,
2018-12-12, 03:18:06,VALID,917.747,VALID,0.0,VALID,96.396,VALID,0.017,VALID,20.298,INVALID,360.0,VALID,0.0,
2018-12-12, 03:19:06,VALID,917.746,VALID,0.0,VALID,96.465,VALID,-0.005,VALID,20.301,INVALID,360.0,VALID,0.0,
2018-12-12, 03:20:06,VALID,917.711,VALID,0.0,VALID,96.629,VALID,0.033,VALID,20.304,INVALID,360.0,VALID,0.0,
2018-12-12, 03:21:06,VALID,917.75,VALID,0.0,VALID,96.806,VALID,0.015,VALID,20.313,INVALID,360.0,VALID,0.0,
2018-12-12, 03:22:06,VALID,917.746,VALID,0.0,VALID,96.845,VALID,0.004,VALID,20.296,INVALID,360.0,VALID,0.0,
2018-12-12, 03:23:06,VALID,917.74,VALID,0.0,VALID,96.882,VALID,-0.005,VALID,20.285,INVALID,360.0,VALID,0.0,
2018-12-12, 03:24:06,VALID,917.738,VALID,0.0,VALID,97.108,VALID,0.008,VALID,20.306,INVALID,360.0,VALID,0.0,
2018-12-12, 03:25:06,VALID,917.731,VALID,0.0,VALID,97.302,VALID,0.008,VALID,20.31,INVALID,360.0,VALID,0.0,
2018-12-12, 03:26:06,VALID,917.727,VALID,0.0,VALID,97.339,VALID,-0.015,VALID,20.287,INVALID,360.0,VALID,0.0,
2018-12-12, 03:27:06,VALID,917.729,VALID,0.0,VALID,97.36,VALID,-0.009,VALID,20.264,INVALID,360.0,VALID,0.0,
2018-12-12, 03:28:06,VALID,917.705,VALID,0.0,VALID,97.341,VALID,-0.006,VALID,20.234,INVALID,360.0,VALID,0.0,
2018-12-12, 03:29:06,VALID,917.709,VALID,0.0,VALID,97.309,VALID,-0.01,VALID,20.206,INVALID,360.0,VALID,0.0,
2018-12-12, 03:30:06,VALID,917.721,VALID,0.0,VALID,97.325,VALID,0.002,VALID,20.199,INVALID,360.0,VALID,0.0,
2018-12-12, 03:31:06,VALID,917.718,VALID,0.0,VALID,97.499,VALID,-0.001,VALID,20.218,INVALID,360.0,VALID,0.0,
2018-12-12, 03:32:06,VALID,917.706,VALID,0.0,VALID,97.65,VALID,-0.001,VALID,20.223,INVALID,360.0,VALID,0.0,
2018-12-12, 03:33:06,VALID,917.705,VALID,0.0,VALID,97.792,VALID,-0.006,VALID,20.229,INVALID,360.0,VALID,0.0,
2018-12-12, 03:34:06,VALID,917.698,VALID,0.0,VALID,97.796,VALID,-0.01,VALID,20.222,INVALID,360.0,VALID,0.0,
2018-12-12, 03:35:06,VALID,917.694,VALID,0.0,VALID,97.812,VALID,-0.012,VALID,20.211,INVALID,360.0,VALID,0.0,
2018-12-12, 03:36:06,VALID,917.699,VALID,0.0,VALID,97.712,VALID,-0.003,VALID,20.192,INVALID,360.0,VALID,0.0,
2018-12-12, 03:37:06,VALID,917.723,VALID,0.0,VALID,97.595,VALID,-0.014,VALID,20.189,INVALID,360.0,VALID,0.0,